This is the latest recevied weather packets stored in our database for station/object XE1E-15. If no packets are shown the sender has not sent any weather packets the latest 10 day(s).
| Time | Temp. | Humidity | Pressure | Rain* | Wind** | Luminosity | Snow |
|---|---|---|---|---|---|---|---|
| 1777257845 | 22.78° C | 42% | 1023 hPa | - | - | - | - |
| 1777257810 | 22.78° C | 42% | 1023 hPa | - | - | - | - |
| 1777256850 | 22.78° C | 42% | 1023 hPa | - | - | - | - |
| 1777255889 | 22.78° C | 42% | 1023 hPa | - | - | - | - |
| 1777254928 | 23.89° C | 35% | 1022.6 hPa | - | - | - | - |
| 1777253491 | 24.44° C | 35% | 1021.4 hPa | - | - | - | - |
| 1777252531 | 25° C | 37% | 1021 hPa | - | - | - | - |
| 1777251571 | 25° C | 35% | 1021.1 hPa | - | - | - | - |
| 1777250611 | 25° C | 36% | 1021 hPa | - | - | - | - |
| 1777249651 | 26.11° C | 42% | 1021 hPa | - | - | - | - |
| 1777248690 | 26.11° C | 43% | 1020.6 hPa | - | - | - | - |
| 1777247730 | 26.11° C | 43% | 1020.7 hPa | - | - | - | - |
| 1777246770 | 27.22° C | 38% | 1020.5 hPa | - | - | - | - |
| 1777245810 | 27.78° C | 35% | 1020.1 hPa | - | - | - | - |
| 1777244850 | 28.89° C | 31% | 1020.1 hPa | - | - | - | - |
| 1777243890 | 28.89° C | 34% | 1020 hPa | - | - | - | - |
| 1777242929 | 28.33° C | 33% | 1019.7 hPa | - | - | - | - |
| 1777241969 | 30° C | 27% | 1019.7 hPa | - | - | - | - |
| 1777241009 | 31.11° C | 20% | 1019.5 hPa | - | - | - | - |
| 1777240049 | 30.56° C | 19% | 1019.4 hPa | - | - | - | - |
| 1777239089 | 32.78° C | 20% | 1019.5 hPa | - | - | - | - |
| 1777238128 | 32.78° C | 19% | 1019.7 hPa | - | - | - | - |
| 1777237168 | 32.78° C | 20% | 1019.8 hPa | - | - | - | - |
| 1777236208 | 31.67° C | 21% | 1020 hPa | - | - | - | - |
| 1777235247 | 30.56° C | 22% | 1020.3 hPa | - | - | - | - |
* Rain since midnight (hover to see other rain measurements)
** Current wind speed in m/s (hover to see current wind gust speed)